Regional Weather Roundup
Issued by NWS

Home | Current Version | Previous Version | Graphics & Text | Print | Product List | Glossary On
Versions: 1 2 3 4 5 6 7 8 9 10 11 12 13 14 15 16 17 18 19 20 21 22 23 24 25 26 27 28 29 30 31 32 33 34 35 36 37 38 39 40 41 42 43 44 45 46 47 48 49 50
000
ASUS45 KTFX 220419
RWRMT
MONTANA HOURLY WEATHER ROUNDUP
NATIONAL WEATHER SERVICE GREAT FALLS MT
919 PM MST SUN DEC 21 2014

NOTE: "FAIR" INDICATES FEW OR NO CLOUDS BELOW 12000 FEET WITH NO
SIGNIFICANT WEATHER AND/OR OBSTRUCTIONS TO VISIBILITY.

* THESE STATIONS ARE NOT UNDER NWS QUALITY CONTROL. THEY DO NOT
   REPORT WEATHER SUCH AS PRECIPITATION OR FOG.

MTZ001>007-043-220500-
WEST OF THE DIVIDE
CITY           SKY/WX    TMP DP  RH WIND       PRES   REMARKS
KALISPELL      CLOUDY    36  28  73 SW8       29.80R WCI  30
MISSOULA       CLOUDY    37  28  70 NW12      29.86S WCI  29
BUTTE          CLOUDY    32  23  69 NW13      29.83R WCI  22
MULLAN PASS    CLOUDY    28  27  96 VRB7G18   29.84R WCI  21
* ESSEX        N/A       33  31  92 W1G6       N/A
* EUREKA APT   CLEAR     39  27  62 SE3       29.80R
* HAMILTON APT CLOUDY    36  32  85 S8        29.89F WCI  30
* LIBBY APT    MOCLDY    36  30  79 CALM      29.83S
* LINCOLN      N/A       34  26  73 S5G20      N/A   WCI  29
* LOOKOUT PASS N/A       36  28  73 NE3G9      N/A
* POLSON       N/A       33  28  82 SW2        N/A
* RONAN APT    CLOUDY    39  28  65 N/A        N/A
* SEELEY LAKE  N/A       37  24  59 NW10G19    N/A   WCI  30
* THOMP F APT  CLOUDY    28  21  75 NW4G20     N/A
$$

MTZ008-052>055-220500-
SOUTHWEST MONTANA
CITY           SKY/WX    TMP DP  RH WIND       PRES   REMARKS
BOZEMAN        PTCLDY    30  25  82 E6        29.81R WCI  24
DILLON         MOCLDY    34  25  70 W10       29.85R WCI  26
* W YELLOWSTON PTCLDY    27  25  92 NE1        N/A
* THREE FORKS  MOCLDY    37  36  96 N/A        N/A
* TWIN BRIDGES CLOUDY    32  25  75 N9         N/A   WCI  24
* BOULDER HILL N/A       33  13  44 SW9G23     N/A   WCI  25
* MONIDA PASS  N/A       28  17  63 NW24G31    N/A   WCI  14
* RAYNOLDS PAS N/A       27 -20  11 VRB7       N/A   WCI  19
* WHITEHALL    N/A       35  28  76 S3         N/A
* WISE RIVER   N/A       30  26  85 W6G28      N/A   WCI  24
$$

MTZ009>010-012-014-046-048-049-054-220500-
EAST SLOPES AND CENTRAL MONTANA
CITY           SKY/WX    TMP DP  RH WIND       PRES   REMARKS
CUT BANK       PTCLDY    34  25  70 W16       29.64S WCI  24
GREAT FALLS    PTCLDY    32  25  75 W9        29.67R WCI  24
HELENA         PTCLDY    39  23  53 W17G30    29.72F WCI  30
MALMSTROM AFB  PTCLDY    36  27  70 W13       29.69R WCI  27
* CONRAD       PTCLDY    37  28  70 W18G25     N/A   WCI  27
* DEARBORN     N/A       35  24  64 SE2        N/A
* EAST GLACIER N/A       34  18  52 W29G47     N/A   WCI  20
* MONARCH      N/A       33  14  45 W19G30     N/A   WCI  22
* PENDROY      N/A       33  21  61 NW14       N/A   WCI  23
* ROGERS PASS  N/A       30  20  66 E3G12      N/A
* SWEET GRASS  N/A       33  24  70 NW14G19    N/A   WCI  23
* WHITE SULPH  N/A       32  20  61 W10G21     N/A   WCI  24
$$

MTZ011-013-016-021-035-040-045-047-050-051-220500-
NORTH CENTRAL MONTANA
CITY           SKY/WX    TMP DP  RH WIND       PRES   REMARKS
HAVRE          CLOUDY    36  28  73 W12       29.61R WCI  28
LEWISTOWN      CLOUDY    39  23  53 W23G33    29.62R WCI  28
* N BAR RANCH  CLOUDY    36  25  64 NW23G37   29.61R WCI  24
* CHINOOK      CLOUDY    36  28  73 W14G21    29.58R WCI  27
* CHESTER      N/A       36  26  67 NW9        N/A   WCI  29
* DENTON       N/A       40  23  51 W24G30     N/A   WCI  30
* GEYSER       N/A       36  18  48 W20G29     N/A   WCI  25
* JUDITH GAP   N/A       36  19  50 SW8G18     N/A   WCI  30
* LOMA         N/A       39  24  55 SW10G16    N/A   WCI  32
$$

MTZ017>020-022>027-061-062-220500-
NORTHEAST MONTANA
CITY           SKY/WX    TMP DP  RH WIND       PRES   REMARKS
GLASGOW        N/A       36  30  79 NW23G33   29.45R WCI  24
GLENDIVE       CLOUDY    37  34  89 W16G21    29.42R WCI  28
JORDAN         PTCLDY    37  34  89 W12       29.50R WCI  29
SIDNEY         CLOUDY    34  34 100 CALM      29.40S VSB 3
WOLF POINT     CLOUDY    36  32  85 W10       29.41R WCI  29
* BEAVER HILL  N/A       37  34  89 W16G21     N/A   WCI  28
* CIRCLE       N/A       38  34  86 W18        N/A   WCI  28
* LINDSAY DVD  N/A       36  33  89 W26G33     N/A   WCI  24
* PLENTYWOOD A PTCLDY    30  28  92 NE5       29.36R WCI  25
* POPLAR APT   CLOUDY    34  32  92 SW5       29.40R WCI  29
* SACO         N/A       36  33  89 W20G27     N/A   WCI  25
* SCOBEY APT   MOCLDY    34  28  79 S5         N/A   WCI  29
$$

MTZ028>042-056>058-220500-
SOUTHCENTRAL AND SOUTHEAST MONTANA
CITY           SKY/WX    TMP DP  RH WIND       PRES   REMARKS
BAKER          LGT RAIN  37 N/A N/A W17G24    29.44R WCI  27
BILLINGS       CLOUDY    43  19  38 W17       29.65R
LIVINGSTON     CLOUDY    37  25  62 SW20      29.75R WCI  27
MILES CITY     CLOUDY    39  34  82 W22G30    29.50R WCI  29
* BIG TIMBER A PTCLDY    36  19  50 W23G31    29.70R WCI  24
* FORSYTH APT  CLOUDY    41  34  76 W20G26    29.55R
* LAUREL APT   MOCLDY    43  18  37 W21G32     N/A
* ROUNDUP APT  MOCLDY    39  23  53 N/A        N/A
* ALZADA       N/A       37  35  92 W13        N/A   WCI  29
* HYSHAM       N/A       40  27  60 NW18G26    N/A   WCI  31
* LAME DEER    N/A      N/A N/A N/A N/A        N/A
* REED POINT   N/A       41  20  43 W20G31     N/A
* ROSCOE HILL  N/A       37   5  26 W10G34     N/A   WCI  30
$$

REGIONAL REPORTS...DAKOTAS
CITY           SKY/WX    TMP DP  RH WIND       PRES   REMARKS
WILLISTON      CLOUDY    30  27  89 W3        29.37S
DICKINSON      CLOUDY    37  34  89 W9        29.36R WCI  30
BEACH          CLOUDY    36  36 100 W10       29.41R WCI  29
CROSBY         CLOUDY    28  28 100 SE3       29.38S
TIOGA          CLOUDY    30  30 100 S3        29.40R
WATFORD CITY   CLOUDY    36  36 100 SW5       29.36R WCI  32
BISMARCK       FOG       28  28 100 SE10      29.45F WCI  19
GRAND FORKS    CLOUDY    34  30  85 SE10      29.57S WCI  26
FARGO          FOG       36  34  92 SE13      29.56S VSB 3    WCI  27
BUFFALO SD     CLOUDY    39  36  89 W20       29.37R WCI  29
RAPID CITY     LGT RAIN  41  36  82 NW25G32   29.47R
$$

REGIONAL REPORTS...WYOMING/IDAHO/WASHINGTON
CITY           SKY/WX    TMP DP  RH WIND       PRES   REMARKS
GILLETTE       CLOUDY    36  30  79 NW20      29.57R WCI  25
SHERIDAN       CLOUDY    39  25  57 NW33G45   29.62R WCI  27
CODY           MOCLDY    34  28  79 W9        29.69S WCI  27
YELLOWSTONE LA MOCLDY    21  18  88 W7        29.79R WCI  12
SALMON         CLOUDY    36  28  73 CALM      29.92S
MULLAN PASS    CLOUDY    28  27  96 VRB7G18   29.84S WCI  21
SAND POINT     CLOUDY    41  34  76 SW6       29.88R
SPOKANE        CLOUDY    41  36  82 SW8       29.91R
$$

REGIONAL REPORTS...ALBERTA
CITY           SKY/WX    TMP DP  RH WIND       PRES   REMARKS
CALGARY        PTCLDY    28  23  81 CALM      29.60R
LETHBRIDGE     MOCLDY    30  25  82 SW8       29.64R WCI  22
MEDICINE HAT   CLOUDY    34  30  85 W12       29.60R WCI  25
EDMONTON       LGT SNOW  28  27  96 W6        29.56R WCI  21
WATERTON GATE  N/A       37  18  46 W14G24     N/A   WCI  28
CARDSTON       N/A       36  23  59 W13        N/A   WCI  27
MILK RIVER     N/A       30  25  82 N9         N/A   WCI  22
$$

REGIONAL REPORTS...SASKATCHEWAN
CITY           SKY/WX    TMP DP  RH WIND       PRES   REMARKS
SWIFT CURRENT  LGT SNOW  21  19  92 W18       29.46R VSB 3    WCI   6
REGINA         CLOUDY    25  23  92 E7        29.41R WCI  17
VAL MARIE      N/A       34  32  92 NW17       N/A   WCI  23
ASSINIBOIA     N/A       32  34 N/A NW15       N/A   WCI  22
CORONACH       N/A       34  32  92 W14        N/A   WCI  24

$$




USA.gov is the U.S. government's official web portal to all federal, state and local government web resources and services.